Regional Weather Roundup
Issued by NWS Burlington, VT

Home | Current Version | Previous Version | Text Only | Print | Product List | Glossary On
Versions: 1 2 3 4 5 6 7 8 9 10 11 12 13 14 15 16 17 18 19 20 21 22 23 24 25 26 27 28 29 30 31 32 33 34 35 36 37 38 39 40 41 42 43 44 45 46 47 48 49 50
000
ASUS41 KBTV 030510
RWRBTV
VERMONT REGIONAL WEATHER ROUNDUP
NATIONAL WEATHER SERVICE BURLINGTON VT
100 AM EDT MON AUG 03 2015

NOTE: "FAIR" INDICATES FEW OR NO CLOUDS BELOW 12,000 FEET WITH NO
SIGNIFICANT WEATHER AND/OR OBSTRUCTIONS TO VISIBILITY.

* THESE REPORTS ARE NOT UNDER NWS QUALITY CONTROL AND/OR DO NOT
  REPORT WEATHER SUCH AS PRECIPITATION AND FOG.

VTZ001>019-030600-
_____VERMONT_____


CITY           SKY/WX    TMP DP  RH WIND       PRES   REMARKS
BURLINGTON     PTCLDY    74  56  53 S10       29.72F
MONTPELIER     PTCLDY    66  55  67 S3        29.83F
MORRISVILLE    CLEAR     62  57  83 CALM      29.77F
ST. JOHNSBURY*   N/A     61  57  87 MISG      29.78S
LYNDONVILLE*   FAIR      64  56  73 SE5       29.82R
MIDDLEBURY*    FAIR      74  56  54 S9G18     29.76F
SPRINGFIELD    CLEAR     61  57  87 VRB5      29.84R
HIGHGATE*      FAIR      74  57  53 S10G20    29.69S
NEWPORT*       FAIR      65  56  73 S5        29.77F
BENNINGTON     CLEAR     62  57  83 CALM      29.83S
SUTTON*          N/A     59 N/A N/A MISG        N/A

_____LAKE CHAMPLAIN_____


CITY           SKY/WX    TMP DP  RH WIND       PRES   REMARKS

$$

NYZ007-026>031-035-052-083-030600-
_____NORTHERN NEW YORK_____


CITY           SKY/WX    TMP DP  RH WIND       PRES   REMARKS
PLATTSBURGH    PTCLDY    64  59  83 S6        29.70S
SARANAC LAKE   MOCLDY    67  54  63 SW9       29.74F
MASSENA        CLOUDY    73  54  51 S9        29.64F
OGDENSBURG*    CLEAR     70  57  64 S7        29.63S
POTSDAM*       CLEAR     73  59  60 SW9       29.66R
WATERTOWN      CLOUDY    77  58  51 S13G26    29.65R
FT DRUM        MOCLDY    76  59  54 SW21      29.67R
ALBANY         MOCLDY    73  57  57 S12       29.79F
GLENS FALLS    CLEAR     68  58  70 S3        29.78F

$$
NHZ002-005-011-030600-
_____NEW HAMPSHIRE_____


CITY           SKY/WX    TMP DP  RH WIND       PRES   REMARKS
LEBANON        CLEAR     61  57  87 CALM      29.81S
KEENE          CLEAR     61  54  77 CALM      29.86R
MT WASHINGTON  MOCLDY    50  46  87 W35G41      N/A
PLYMOUTH       FAIR      57  57 100 CALM      29.82S
WHITEFIELD     CLEAR     56  53  90 S3        29.82F

$$

_____REGIONAL QUEBEC LOCATIONS_____


CITY           SKY/WX    TMP DP  RH WIND       PRES   REMARKS
MONTREAL       MOCLDY    72  59  64 SE7       29.64F
QUEBEC CITY    MOCLDY    66  59  77 N6        29.69F
SHERBROOKE     CLOUDY    63  57  82 VRB2      29.75S

_____REGIONAL ONTARIO LOCATIONS_____


CITY           SKY/WX    TMP DP  RH WIND       PRES   REMARKS
OTTAWA         LGT RAIN  64  61  88 W12       29.67S

______KEY______
VSB  - VISIBILITY IN MILES
WCI  - WIND CHILL INDEX
HX   - HEAT INDEX
$$
NNNN


USA.gov is the U.S. government's official web portal to all federal, state and local government web resources and services.